Location: Cs�cs
(46.3167°N, 22.5167°E)
Time: 01:08:47
(UTC+00:00)

Daily predictions for brighter satellites

Satellite Brightness Start Highest point End
(mag) Time Altitude Azimuth Time Altitude Azimuth Time Altitude Azimuth
USA 215 4.5 01:52:21 10° E 01:56:40 34° NE 01:56:40 34° NE
Cosmos 2344 3.5 02:34:23 69° NNE 02:34:23 69° NNE 02:41:18 10° NE
CENTAUR R/B 2.8 02:43:37 60° NNE 02:43:37 60° NNE 02:49:26 10° NE
Meteor 2-3 Rocket 4.5 02:44:44 47° NE 02:44:44 47° NE 02:48:57 10° NNE
NOSS 3-2 (A) 4.0 03:00:36 45° N 03:00:36 45° N 03:05:35 10° NE
Meteor 1-26 Rocket 4.2 03:00:52 83° E 03:00:52 83° E 03:06:34 10° SSE
Tsikada Rocket 3.9 02:56:32 10° S 03:02:44 90° ESE 03:09:04 10° N
Cosmos 2369 Rocket 2.5 03:05:39 38° S 03:07:43 65° ESE 03:13:17 10° NNE
NOSS 3-2 (C) 3.2 03:08:14 75° NNW 03:08:14 75° NNW 03:14:26 10° NE
Meteor 1-31 Rocket 4.4 03:16:04 10° NNE 03:19:39 34° E 03:23:14 10° SSE
Cosmos 1656 Rocket 4.1 03:14:37 10° S 03:19:54 58° ESE 03:25:15 10° NNE
Envisat 3.6 03:16:21 10° NNE 03:21:22 55° E 03:26:20 10° S
H-2A R/B 4.2 03:20:27 10° NNE 03:25:44 29° SSE 03:27:46 10° S
Cosmos 968 Rocket 3.8 03:26:16 50° N 03:26:16 50° N 03:30:14 10° NNE
Cosmos 2098 Rocket 3.3 03:25:21 10° S 03:29:18 72° E 03:34:24 10° NNE
Cosmos 1943 Rocket 2.9 03:30:59 37° NNW 03:30:59 37° NNW 03:34:58 10° NNE
CZ-2C R/B 2.8 03:25:14 10° SSE 03:30:41 74° ENE 03:35:13 15° N
SKYMED 2 3.6 03:30:25 10° SSE 03:34:44 75° ENE 03:36:10 42° N
Cosmos 1862 3.6 03:31:36 10° S 03:35:30 64° E 03:39:25 10° NNE
Meteor 2-13 Rocket 4.3 03:29:44 10° SSW 03:35:50 77° W 03:41:57 10° N
USA 238 DEB 3.7 03:34:56 48° WNW 03:36:04 53° NW 03:42:50 10° NE
USA 238 3.7 03:35:01 48° WNW 03:36:10 53° NW 03:42:56 10° NE
Cosmos 921 Rocket 3.9 03:39:09 36° SSW 03:39:09 36° SSW 03:42:01 10° S
SL-8 R/B 3.5 03:37:29 72° W 03:37:56 83° SSW 03:42:43 10° ESE
USA 215 3.3 03:34:18 10° ESE 03:40:48 75° NNE 03:44:01 33° NW
MOS 1-B Rocket 3.8 03:37:12 10° S 03:43:25 66° WSW 03:46:59 24° NNW
SJ-12 3.8 03:46:53 10° N 03:51:02 75° WNW 03:55:09 10° SSW
H-2A R/B 4.0 03:47:25 10° ESE 03:51:04 28° ENE 03:54:49 10° N
FALCON 9 DEB 4.4 03:52:09 29° NNE 03:52:09 29° NNE 03:54:27 10° NE
DNEPR-1 R/B 3.9 03:50:37 45° NW 03:52:05 71° SW 03:57:47 10° SSE
Cosmos 1151 Rocket 3.0 03:51:51 52° NW 03:52:36 62° W 03:56:55 10° S
Cosmos 1354 Rocket 4.3 03:48:16 10° S 03:53:29 67° ESE 03:58:47 10° NNE
SL-19 R/B 4.3 03:48:30 10° S 03:53:56 53° WSW 03:56:43 28° NW
Okean 3 Rocket 3.5 03:52:27 10° S 03:57:00 81° W 04:01:34 10° N
BREEZE-M DEB (TANK) 4.0 03:59:20 31° WSW 04:01:16 44° SSW 04:15:17 10° SE
ADEOS 4.0 03:56:18 10° NNE 04:01:31 64° ESE 04:06:41 10° S
CZ-4B R/B 4.4 04:00:12 10° NNE 04:03:28 32° E 04:06:43 10° SSE
Cosmos 1766 Rocket 3.4 03:59:16 10° SSW 04:03:33 61° WNW 04:07:51 10° N
Meteor 1-27 Rocket 4.2 03:59:40 10° N 04:05:16 61° ENE 04:10:57 10° SSE
CZ-4B R/B 4.2 04:04:34 10° ESE 04:06:38 16° ENE 04:08:42 10° NNE
Cosmos 1328 Rocket 3.6 04:08:49 22° NNW 04:11:25 55° W 04:15:40 10° S
BREEZE M DEB (TANK) 2.8 04:12:17 37° NW 04:13:09 48° N 04:15:23 10° ENE
CZ-2C R/B 3.5 04:11:55 10° NNE 04:16:46 60° E 04:21:48 10° S
ATLAS 5 CENTAUR R/B 2.6 04:13:37 10° SSW 04:17:12 41° ESE 04:21:12 10° NE
Meteor 2-6 Rocket 4.3 04:13:32 11° NNW 04:18:29 49° W 04:23:38 10° SSW
Cosmos 2279 Rocket 4.1 04:12:33 10° NNW 04:18:31 52° W 04:24:29 10° SSW
COSMO-SKYMED 1 3.2 04:18:57 10° SSW 04:22:55 34° W 04:24:46 24° NW
Meteor 2-15 Rocket 4.4 04:18:27 10° N 04:24:34 87° W 04:30:38 10° S
Cosmos 1340 Rocket 3.5 04:21:46 10° S 04:25:38 57° E 04:29:34 10° NNE
Cosmos 1812 4.5 04:29:57 16° WSW 04:29:57 16° WSW 04:31:16 10° SW
Nadezhda 4 Rocket 4.0 04:22:43 10° S 04:28:54 90° E 04:35:11 10° N
CZ-4C R/B 3.1 04:26:36 10° S 04:29:34 40° W 04:30:39 28° NW
Cosmos 783 Rocket 4.5 04:26:17 13° NNW 04:30:54 62° WSW 04:36:01 10° S
Meteor PRIRODA 3.6 04:27:39 10° NNE 04:31:17 85° E 04:34:55 10° SSW
H-2A R/B 4.4 04:27:25 10° NE 04:31:25 24° E 04:35:25 10° SSE
CENTAUR R/B 3.7 04:30:49 20° WNW 04:34:07 29° NNW 04:40:31 10° NE
Cosmos 1503 Rocket 4.2 04:29:14 10° SW 04:34:20 49° WNW 04:39:32 10° NNE
Cosmos 1515 4.3 04:32:31 10° N 04:36:18 58° E 04:40:03 10° SSE
Cosmos 1408 Rocket 3.5 04:32:48 10° SSW 04:37:01 56° WNW 04:41:17 10° N
COSMOS 2487 3.2 04:33:55 10° N 04:37:12 49° ENE 04:40:28 10° SE
Cosmos 1939 Rocket 3.2 04:36:47 10° NNE 04:40:43 67° E 04:44:33 10° S
USA 32 4.2 04:36:07 10° N 04:41:22 76° E 04:46:37 10° S
Cosmos 2228 Rocket 3.6 04:37:50 10° N 04:42:19 63° E 04:46:48 10° SSE
Cosmos 1777 Rocket 3.9 04:37:56 10° SSW 04:43:09 84° WNW 04:48:26 10° NNE
Cosmos 1092 Rocket 4.3 04:39:09 10° S 04:45:21 73° E 04:51:40 10° NNE
Cosmos 1743 Rocket 3.5 04:41:33 10° S 04:45:57 85° W 04:50:20 10° N
Cosmos 2297 Rocket 3.5 04:42:11 10° NNW 04:47:26 37° NE 04:52:39 10° ESE
Cosmos 773 Rocket 4.2 04:42:51 10° NNW 04:47:53 49° WSW 04:52:50 10° S
DMSP B5D2-2 4.2 04:44:37 10° S 04:49:44 56° W 04:54:52 10° NNW
Cosmos 2369 Rocket 3.2 04:47:42 10° WSW 04:52:13 25° NW 04:56:48 10° N
Meteor 1-31 Rocket 4.0 04:50:50 10° NNW 04:53:49 21° WNW 04:56:49 10° WSW
Cosmos 1515 Rocket 4.1 04:50:05 10° NNW 04:54:05 36° W 04:58:01 10° SSW
NOAA 6 4.4 04:51:29 10° NNE 04:56:37 72° ESE 05:01:43 10° S
H-2A R/B 4.4 04:55:52 10° NNW 05:00:49 - WSW 04:57:29 14° WNW
SMAP 3.2 04:53:24 10° NNE 04:58:06 82° ESE 05:02:44 10° SSW
SJ 16-02 1.3 04:54:05 10° SSW 04:58:25 61° WNW 05:02:46 10° NNE
BREEZE-M DEB (TANK) 3.1 04:48:24 10° WSW 04:58:43 80° SSE 05:01:49 10° ENE
Okean 1 3.8 04:55:43 10° N 04:59:39 61° E 05:03:33 10° SSE
Envisat 4.1 04:56:09 10° NNW 05:00:00 22° WNW 05:03:51 10° WSW
SL-27 R/B 3.5 04:58:52 12° NW 05:01:40 28° WSW 05:04:44 10° SSW
ATLAS 3B R/B 2.7 04:55:46 10° SSW 05:02:18 85° SE 05:09:11 10° NE
FengYun 1-2 T 4.2 05:00:24 10° NNE 05:05:55 80° WNW 05:11:23 10° SSW
AQUARIUS 4.2 05:02:48 10° NNE 05:07:20 88° E 05:11:50 10° SSW
CZ-2D R/B 3.7 05:06:00 10° NNE 05:09:47 67° E 05:13:33 10° S
Cosmos 2263 Rocket 4.5 05:08:08 10° N 05:10:30 13° NE 05:12:52 10° ENE
CZ-2C R/B 4.1 05:08:04 10° SW 05:11:30 17° W 05:14:56 10° NW
Cosmos 158 Rocket 4.0 05:09:05 10° NNW 05:14:10 64° WSW 05:19:21 10° S
Cosmos 1500 Rocket 4.0 05:09:57 10° SSW 05:14:10 41° WNW 05:18:26 10° N
Cosmos 1943 Rocket 4.0 05:13:26 10° NW 05:14:55 11° NNW 05:16:22 10° NNW
Alouette 2 Rocket 3.7 05:12:16 10° NNW 05:15:48 40° W 05:19:11 10° SSW
FALCON 9 DEB 4.3 05:13:42 10° NW 05:16:06 23° N 05:18:29 10° ENE
Cosmos 1174 3.5 05:14:37 10° WSW 05:17:26 40° NW 05:20:28 10° NNE
FALCON 9 DEB 4.2 05:17:39 10° NW 05:20:06 25° NNE 05:22:34 10° ENE
FALCON 9 DEB 4.1 05:18:28 10° NW 05:20:58 26° NNE 05:23:27 10° ENE
NOAA 12 4.4 05:17:40 10° N 05:22:42 46° WNW 05:27:40 10° SW
Sich 1 3.0 05:18:28 10° SSW 05:22:44 71° W 05:27:01 10° N
CORIOLIS 4.2 05:17:35 10° NNE 05:23:03 79° WNW 05:28:29 10° SSW
Cosmos 2227 Rocket 3.1 05:17:41 10° NNW 05:23:11 48° ENE 05:28:36 10° SE
USA 215 4.0 05:18:10 10° SSE 05:24:08 38° SW 05:30:09 10° WNW
Meteor 1-19 Rocket 4.2 05:18:49 10° NNW 05:24:25 73° W 05:29:50 10° S
Meteor 1-20 Rocket 4.3 05:19:24 10° SSW 05:24:54 58° WNW 05:30:32 10° N
Cosmos 1707 Rocket 3.7 05:21:35 10° N 05:26:03 87° E 05:30:30 10° S
Cosmos 1805 Rocket 3.7 05:21:50 10° SSW 05:26:07 51° WNW 05:30:24 10° N
